This is the latest recevied weather packets stored in our database for station/object W1QED. If no packets are shown the sender has not sent any weather packets the latest 10 day(s).
| Time | Temp. | Humidity | Pressure | Rain* | Wind** | Luminosity | Snow |
|---|---|---|---|---|---|---|---|
| 1777478757 | 10.56° C | 57% | 1016 hPa | 0 mm | - | - | - |
| 1777478461 | 10.56° C | 58% | 1016 hPa | 0 mm | - | - | - |
| 1777478155 | 11.11° C | 57% | 1015.9 hPa | 0 mm | - | - | - |
| 1777477855 | 11.11° C | 56% | 1015.8 hPa | 0 mm | - | - | - |
| 1777477564 | 11.67° C | 55% | 1015.8 hPa | 0 mm | - | - | - |
| 1777477254 | 11.67° C | 53% | 1015.6 hPa | 0 mm | - | - | - |
| 1777476951 | 11.67° C | 57% | 1015.7 hPa | 0 mm | - | - | - |
| 1777476653 | 11.67° C | 55% | 1015.9 hPa | 0 mm | - | - | - |
| 1777476349 | 11.67° C | 56% | 1016 hPa | 0 mm | - | - | - |
| 1777476049 | 11.67° C | 56% | 1015.9 hPa | 0 mm | - | - | - |
| 1777475756 | 11.67° C | 55% | 1015.9 hPa | 0 mm | - | - | - |
| 1777475447 | 11.67° C | 55% | 1016.1 hPa | 0 mm | - | - | - |
| 1777475145 | 11.67° C | 53% | 1016.3 hPa | 0 mm | - | - | - |
| 1777474850 | 11.67° C | 54% | 1016.5 hPa | 0 mm | - | - | - |
| 1777474543 | 11.67° C | 55% | 1016.7 hPa | 0 mm | - | - | - |
| 1777474242 | 12.22° C | 54% | 1016.5 hPa | 0 mm | - | - | - |
| 1777473940 | 11.67° C | 56% | 1016.6 hPa | 0 mm | - | - | - |
| 1777473639 | 11.67° C | 54% | 1016.8 hPa | 0 mm | - | - | - |
| 1777473338 | 11.11° C | 54% | 1016.9 hPa | 0 mm | - | - | - |
| 1777473035 | 11.11° C | 55% | 1016.8 hPa | 0 mm | - | - | - |
| 1777472734 | 10.56° C | 56% | 1016.8 hPa | 0 mm | - | - | - |
| 1777472433 | 11.11° C | 58% | 1017.1 hPa | 0 mm | - | - | - |
| 1777472132 | 11.11° C | 57% | 1017.4 hPa | 0 mm | - | - | - |
| 1777471831 | 10.56° C | 56% | 1017.6 hPa | 0 mm | - | - | - |
| 1777471530 | 10.56° C | 57% | 1017.5 hPa | 0 mm | - | - | - |
* Rain latest hour (hover to see other rain measurements)
** Current wind speed in m/s (hover to see current wind gust speed)